Change the Weather History Date:

Monday, January 21, 2013

  Actual Average Record
Temperature  
Mean Temperature -8 °F -  
Max Temperature -4 °F 25 °F 45 °F (1968)
Min Temperature -11 °F 8 °F -33 °F (1970)
Degree Days  
Heating Degree Days 72    
Moisture  
Dew Point -15 °F    
Average Humidity 71    
Maximum Humidity 84    
Minimum Humidity 64    
Precipitation  
Precipitation 0.00 in - - ()
Sea Level Pressure  
Sea Level Pressure 30.28 in    
Wind  
Wind Speed 14 mph (WNW)    
Max Wind Speed 20 mph    
Max Gust Speed 25 mph    
Visibility 9 miles    
Events      
Averages and records for this station are not official NWS values.
T = Trace of Precipitation, MM = Missing Value Source: NWS Daily Summary

Daily Weather History Graph

Daily Weather History Graph

Search for Another Location

Airport or City:

Trip Planner

Search our weather history database for the weather conditions in past years. The results will help you decide how hot, cold, wet, or windy it might be!

Date:

Astronomy

Jan. 21, 2013 Rise Set
Actual Time 7:42 AM CST 5:06 PM CST
Civil Twilight 7:10 AM CST 5:38 PM CST
Nautical Twilight 6:34 AM CST 6:14 PM CST
Astronomical Twilight 5:59 AM CST 6:49 PM CST
Moon 12:46 PM CST (1/21) 3:11 AM CST (1/21)
Length of Visible Light 10h 28m
Length of Day
9h 24m
Waxing Gibbous, 75% of the Moon is Illuminated
Jan 21
Waxing Gibbous
Jan 26
Full
Feb 3
Last Quarter
Feb 10
New
Feb 17
First Quarter

Hourly Weather History & Observations

Time (CST) Temp. Windchill Dew Point Humidity Pressure Visibility Wind Dir Wind Speed Gust Speed Precip Events Conditions
12:08 AM -4.0 °F -23.0 °F -11.2 °F 71% 30.26 in 10.0 mi WNW 12.7 mph 18.4 mph N/A   Clear
12:29 AM -5.8 °F -25.2 °F -11.2 °F 77% 30.25 in 10.0 mi WNW 12.7 mph - N/A   Clear
12:48 AM -5.8 °F -26.0 °F -11.2 °F 77% 30.25 in 10.0 mi WNW 13.8 mph - N/A   Clear
1:09 AM -5.8 °F -25.2 °F -11.2 °F 77% 30.25 in 5.0 mi WNW 12.7 mph - N/A   Haze
1:29 AM -5.8 °F -26.0 °F -11.2 °F 77% 30.25 in 5.0 mi WNW 13.8 mph 18.4 mph N/A   Haze
1:49 AM -5.8 °F -27.5 °F -11.2 °F 77% 30.26 in 3.0 mi WNW 16.1 mph - N/A   Haze
2:09 AM -5.8 °F -28.8 °F -11.2 °F 77% 30.26 in 5.0 mi WNW 18.4 mph 24.2 mph N/A   Haze
2:29 AM -5.8 °F -28.8 °F -13.0 °F 71% 30.27 in 10.0 mi WNW 18.4 mph 25.3 mph N/A   Clear
2:49 AM -7.6 °F -30.5 °F -14.8 °F 71% 30.27 in 10.0 mi WNW 17.3 mph 24.2 mph N/A   Clear
3:09 AM -7.6 °F -28.3 °F -14.8 °F 71% 30.27 in 10.0 mi WNW 13.8 mph 18.4 mph N/A   Clear
3:29 AM -7.6 °F -31.1 °F -14.8 °F 71% 30.27 in 10.0 mi WNW 18.4 mph 23.0 mph N/A   Scattered Clouds
3:49 AM -7.6 °F -31.1 °F -14.8 °F 71% 30.27 in 7.0 mi WNW 18.4 mph - N/A   Scattered Clouds
4:09 AM -9.4 °F -33.5 °F -16.6 °F 71% 30.27 in 10.0 mi WNW 18.4 mph 21.9 mph N/A   Clear
4:29 AM -9.4 °F -32.8 °F -16.6 °F 71% 30.27 in 10.0 mi WNW 17.3 mph 21.9 mph N/A   Clear
4:49 AM -9.4 °F -32.8 °F -16.6 °F 71% 30.27 in 10.0 mi WNW 17.3 mph - N/A   Clear
5:09 AM -9.4 °F -31.4 °F -18.4 °F 65% 30.28 in 10.0 mi West 15.0 mph - N/A   Clear
5:29 AM -11.2 °F -35.8 °F -18.4 °F 70% 30.28 in 10.0 mi West 18.4 mph 21.9 mph N/A   Clear
5:49 AM -11.2 °F -34.4 °F -18.4 °F 70% 30.28 in 10.0 mi WNW 16.1 mph - N/A   Clear
6:09 AM -11.2 °F -33.7 °F -18.4 °F 70% 30.29 in 10.0 mi West 15.0 mph - N/A   Clear
6:29 AM -11.2 °F -32.9 °F -18.4 °F 70% 30.29 in 10.0 mi WNW 13.8 mph 19.6 mph N/A   Clear
6:49 AM -11.2 °F -35.8 °F -18.4 °F 70% 30.29 in 10.0 mi WNW 18.4 mph 25.3 mph N/A   Clear
7:09 AM -11.2 °F -35.2 °F -18.4 °F 70% 30.29 in 10.0 mi WNW 17.3 mph 23.0 mph N/A   Clear
7:29 AM -11.2 °F -36.4 °F -18.4 °F 70% 30.29 in 10.0 mi WNW 19.6 mph - N/A   Clear
7:49 AM -11.2 °F -32.1 °F -18.4 °F 70% 30.30 in 10.0 mi WNW 12.7 mph - N/A   Clear
8:09 AM -11.2 °F -33.7 °F -20.2 °F 64% 30.30 in 10.0 mi WNW 15.0 mph 23.0 mph N/A   Clear
8:29 AM -11.2 °F -33.7 °F -18.4 °F 70% 30.30 in 10.0 mi WNW 15.0 mph - N/A   Clear
8:48 AM -11.2 °F -33.7 °F -18.4 °F 70% 30.31 in 10.0 mi WNW 15.0 mph - N/A   Clear
9:09 AM -11.2 °F -34.4 °F -18.4 °F 70% 30.32 in 10.0 mi WNW 16.1 mph 19.6 mph N/A   Clear
9:29 AM -9.4 °F -32.1 °F -18.4 °F 65% 30.32 in 10.0 mi WNW 16.1 mph 19.6 mph N/A   Clear
9:48 AM -9.4 °F -31.4 °F -18.4 °F 65% 30.32 in 7.0 mi WNW 15.0 mph 20.7 mph N/A   Clear
10:09 AM -9.4 °F -31.4 °F -18.4 °F 65% 30.32 in 5.0 mi WNW 15.0 mph 23.0 mph N/A   Haze
10:29 AM -9.4 °F -32.8 °F -18.4 °F 65% 30.32 in 7.0 mi NW 17.3 mph - N/A   Clear
10:49 AM -9.4 °F -32.8 °F -16.6 °F 71% 30.32 in 7.0 mi West 17.3 mph 21.9 mph N/A   Clear
11:09 AM -9.4 °F -31.4 °F -16.6 °F 71% 30.32 in 7.0 mi WNW 15.0 mph 20.7 mph N/A   Clear
11:28 AM -7.6 °F -30.5 °F -16.6 °F 65% 30.31 in 7.0 mi WNW 17.3 mph - N/A   Clear
11:49 AM -7.6 °F -29.1 °F -16.6 °F 65% 30.30 in 7.0 mi WNW 15.0 mph 19.6 mph N/A   Clear
12:09 PM -7.6 °F -28.3 °F -14.8 °F 71% 30.29 in 5.0 mi West 13.8 mph - N/A   Haze
12:28 PM -7.6 °F -30.5 °F -16.6 °F 65% 30.28 in 7.0 mi West 17.3 mph - N/A   Clear
12:49 PM -7.6 °F -29.8 °F -14.8 °F 71% 30.27 in 7.0 mi West 16.1 mph - N/A   Clear
1:09 PM -5.8 °F -27.5 °F -14.8 °F 65% 30.27 in 7.0 mi West 16.1 mph - N/A   Clear
1:28 PM -5.8 °F -27.5 °F -14.8 °F 65% 30.26 in 7.0 mi WNW 16.1 mph - N/A   Clear
1:49 PM -5.8 °F -27.5 °F -14.8 °F 65% 30.26 in 7.0 mi WNW 16.1 mph 23.0 mph N/A   Clear
2:09 PM -5.8 °F -28.8 °F -14.8 °F 65% 30.26 in 10.0 mi WNW 18.4 mph 23.0 mph N/A   Clear
2:29 PM -5.8 °F -28.8 °F -14.8 °F 65% 30.26 in 7.0 mi West 18.4 mph 23.0 mph N/A   Clear
2:49 PM -5.8 °F -27.5 °F -14.8 °F 65% 30.26 in 10.0 mi West 16.1 mph 21.9 mph N/A   Clear
3:09 PM -5.8 °F -28.2 °F -14.8 °F 65% 30.25 in 10.0 mi WNW 17.3 mph 23.0 mph N/A   Clear
3:29 PM -5.8 °F -26.8 °F -14.8 °F 65% 30.26 in 10.0 mi West 15.0 mph - N/A   Clear
3:49 PM -5.8 °F -27.5 °F -14.8 °F 65% 30.26 in 10.0 mi West 16.1 mph 23.0 mph N/A   Clear
4:09 PM -5.8 °F -27.5 °F -14.8 °F 65% 30.26 in 10.0 mi West 16.1 mph 21.9 mph N/A   Clear
4:29 PM -7.6 °F -30.5 °F -14.8 °F 71% 30.26 in 10.0 mi West 17.3 mph 21.9 mph N/A   Clear
4:49 PM -7.6 °F -28.3 °F -14.8 °F 71% 30.25 in 10.0 mi West 13.8 mph - N/A   Clear
5:09 PM -7.6 °F -29.1 °F -14.8 °F 71% 30.26 in 10.0 mi West 15.0 mph - N/A   Clear
5:29 PM -7.6 °F -28.3 °F -14.8 °F 71% 30.27 in 10.0 mi West 13.8 mph 18.4 mph N/A   Clear
5:49 PM -7.6 °F -25.7 °F -14.8 °F 71% 30.27 in 10.0 mi West 10.4 mph - N/A   Clear
6:08 PM -7.6 °F -25.7 °F -14.8 °F 71% 30.28 in 10.0 mi West 10.4 mph - N/A   Clear
6:29 PM -7.6 °F -25.7 °F -14.8 °F 71% 30.28 in 10.0 mi WNW 10.4 mph 17.3 mph N/A   Clear
6:49 PM -7.6 °F -27.5 °F -14.8 °F 71% 30.27 in 10.0 mi West 12.7 mph 18.4 mph N/A   Clear
7:08 PM -7.6 °F -24.6 °F -14.8 °F 71% 30.28 in 10.0 mi West 9.2 mph - N/A   Clear
7:29 PM -7.6 °F -26.6 °F -14.8 °F 71% 30.28 in 10.0 mi WNW 11.5 mph - N/A   Clear
7:49 PM -7.6 °F -26.6 °F -14.8 °F 71% 30.28 in 10.0 mi WNW 11.5 mph - N/A   Clear
8:08 PM -7.6 °F -26.6 °F -14.8 °F 71% 30.28 in 10.0 mi WNW 11.5 mph - N/A   Clear
8:29 PM -7.6 °F -22.1 °F -14.8 °F 71% 30.28 in 10.0 mi WNW 6.9 mph - N/A   Clear
8:49 PM -7.6 °F -23.4 °F -13.0 °F 77% 30.28 in 10.0 mi West 8.1 mph - N/A   Clear
9:08 PM -7.6 °F -23.4 °F -13.0 °F 77% 30.28 in 10.0 mi West 8.1 mph - N/A   Clear
9:29 PM -7.6 °F -22.1 °F -13.0 °F 77% 30.28 in 10.0 mi West 6.9 mph - N/A   Clear
9:49 PM -7.6 °F -20.6 °F -13.0 °F 77% 30.28 in 10.0 mi West 5.8 mph - N/A   Clear
10:08 PM -7.6 °F -18.8 °F -13.0 °F 77% 30.28 in 10.0 mi West 4.6 mph - N/A   Clear
10:29 PM -9.4 °F -18.6 °F -13.0 °F 84% 30.28 in 10.0 mi West 3.5 mph - N/A   Clear
10:49 PM -9.4 °F -20.9 °F -13.0 °F 84% 30.28 in 10.0 mi WNW 4.6 mph - N/A   Clear
11:08 PM -9.4 °F -20.9 °F -13.0 °F 84% 30.28 in 10.0 mi West 4.6 mph - N/A   Clear
11:29 PM -9.4 °F -20.9 °F -13.0 °F 84% 30.28 in 10.0 mi West 4.6 mph - N/A   Clear
11:48 PM -7.6 °F -20.6 °F -13.0 °F 77% 30.27 in 10.0 mi West 5.8 mph - N/A   Clear